Novato, CA

2:57 PM PST on February 13, 2016 (GMT -0800)
Gnoss

Weather History for KDVO - April, 2013

Change the Weather History Date:

Tuesday, April 9, 2013

  Actual Average (KAPC) Record (KAPC)
Temperature  
Mean Temperature 62 °F 54 °F  
Max Temperature 75 °F 67 °F 77 °F (2013)
Min Temperature 48 °F 41 °F 30 °F (1929)
Degree Days  
Heating Degree Days 4    
Month to date heating degree days  
Since 1 July heating degree days  
Cooling Degree Days 0    
Month to date cooling degree days  
Year to date cooling degree days  
Growing Degree Days 12 (Base 50)    
Moisture  
Dew Point 40 °F    
Average Humidity 48    
Maximum Humidity 76    
Minimum Humidity 24    
Precipitation  
Precipitation 0.00 in - 1.00 in (1965)
Month to date precipitation  
Year to date precipitation  
Sea Level Pressure  
Sea Level Pressure 30.09 in    
Wind  
Wind Speed 12 mph (NW)    
Max Wind Speed 20 mph    
Max Gust Speed 24 mph    
Visibility 10 miles    
Events      
T = Trace of Precipitation, MM = Missing Value Source: NWS Daily Summary

Daily Weather History Graph

Daily Weather History Graph

Search for Another Location

Airport or City:

Trip Planner

Search our weather history database for the weather conditions in past years. The results will help you decide how hot, cold, wet, or windy it might be!

Date:

Astronomy

Apr. 09, 2013 Rise Set
Actual Time 6:42 AM PDT 7:41 PM PDT
Civil Twilight 6:15 AM PDT 8:08 PM PDT
Nautical Twilight 5:43 AM PDT 8:40 PM PDT
Astronomical Twilight 5:10 AM PDT 9:13 PM PDT
Moon 6:08 AM PDT (4/9) 7:22 PM PDT (4/9)
Length of Visible Light 13h 52m
Length of Day
12h 58m
Waning Crescent, 0% of the Moon is Illuminated
Apr 9
Waning Crescent
Apr 10
New
Apr 18
First Quarter
Apr 25
Full
May 2
Last Quarter

Hourly Weather History & Observations

Time (PDT) Temp. Dew Point Humidity Pressure Visibility Wind Dir Wind Speed Gust Speed Precip Events Conditions
12:15 AM 55.4 °F 39.2 °F 54% 30.05 in 10.0 mi NW 19.6 mph 24.2 mph N/A   Clear
12:35 AM 53.6 °F 39.2 °F 58% 30.06 in 10.0 mi NNW 16.1 mph - N/A   Clear
12:55 AM 53.6 °F 39.2 °F 58% 30.06 in 10.0 mi NNW 16.1 mph - N/A   Clear
1:15 AM 53.6 °F 37.4 °F 54% 30.07 in 10.0 mi NW 15.0 mph - N/A   Clear
1:35 AM 53.6 °F 39.2 °F 58% 30.06 in 10.0 mi NW 18.4 mph - N/A   Clear
1:55 AM 53.6 °F 37.4 °F 54% 30.06 in 10.0 mi NW 16.1 mph - N/A   Clear
2:15 AM 53.6 °F 37.4 °F 54% 30.06 in 10.0 mi NW 16.1 mph 21.9 mph N/A   Clear
2:35 AM 53.6 °F 37.4 °F 54% 30.06 in 10.0 mi NW 15.0 mph - N/A   Clear
2:55 AM 53.6 °F 37.4 °F 54% 30.07 in 10.0 mi NW 16.1 mph 20.7 mph N/A   Clear
3:15 AM 51.8 °F 39.2 °F 62% 30.07 in 10.0 mi NNW 17.3 mph 20.7 mph N/A   Clear
3:35 AM 51.8 °F 39.2 °F 62% 30.06 in 10.0 mi NW 17.3 mph 21.9 mph N/A   Clear
3:55 AM 51.8 °F 39.2 °F 62% 30.07 in 10.0 mi NW 17.3 mph - N/A   Clear
4:15 AM 50.0 °F 39.2 °F 66% 30.07 in 10.0 mi NNW 13.8 mph - N/A   Clear
4:35 AM 50.0 °F 39.2 °F 66% 30.08 in 10.0 mi NNW 12.7 mph - N/A   Clear
4:55 AM 50.0 °F 37.4 °F 62% 30.08 in 10.0 mi NNW 11.5 mph - N/A   Clear
5:15 AM 50.0 °F 37.4 °F 62% 30.08 in 10.0 mi NNW 9.2 mph - N/A   Clear
5:35 AM 50.0 °F 39.2 °F 66% 30.08 in 10.0 mi NNW 12.7 mph 19.6 mph N/A   Clear
5:55 AM 50.0 °F 39.2 °F 66% 30.08 in 10.0 mi NNW 15.0 mph 19.6 mph N/A   Clear
6:15 AM 50.0 °F 39.2 °F 66% 30.09 in 10.0 mi NW 16.1 mph - N/A   Clear
6:35 AM 50.0 °F 37.4 °F 62% 30.10 in 10.0 mi NW 12.7 mph - N/A   Clear
6:55 AM 48.2 °F 39.2 °F 71% 30.11 in 10.0 mi NNW 8.1 mph - N/A   Clear
7:15 AM 50.0 °F 39.2 °F 66% 30.11 in 10.0 mi South 5.8 mph - N/A   Clear
7:35 AM 48.2 °F 41.0 °F 76% 30.11 in 10.0 mi SSE 4.6 mph - N/A   Clear
7:55 AM 50.0 °F 41.0 °F 71% 30.12 in 10.0 mi South 3.5 mph - N/A   Clear
8:15 AM 53.6 °F 39.2 °F 58% 30.12 in 10.0 mi East 3.5 mph - N/A   Clear
8:35 AM 55.4 °F 39.2 °F 54% 30.13 in 10.0 mi NNW 12.7 mph - N/A   Clear
8:55 AM 55.4 °F 41.0 °F 58% 30.13 in 10.0 mi North 12.7 mph - N/A   Clear
9:15 AM 57.2 °F 41.0 °F 55% 30.13 in 10.0 mi NNE 10.4 mph - N/A   Clear
9:35 AM 59.0 °F 39.2 °F 48% 30.12 in 10.0 mi North 10.4 mph - N/A   Clear
9:55 AM 60.8 °F 41.0 °F 48% 30.12 in 10.0 mi NNW 10.4 mph - N/A   Clear
10:15 AM 62.6 °F 39.2 °F 42% 30.12 in 10.0 mi NNW 11.5 mph - N/A   Clear
10:35 AM 64.4 °F 41.0 °F 42% 30.12 in 10.0 mi NNW 11.5 mph - N/A   Clear
10:55 AM 64.4 °F 39.2 °F 40% 30.12 in 10.0 mi NNW 10.4 mph - N/A   Clear
11:15 AM 66.2 °F 39.2 °F 37% 30.12 in 10.0 mi NNW 10.4 mph - N/A   Clear
11:35 AM 66.2 °F 39.2 °F 37% 30.12 in 10.0 mi NW 10.4 mph - N/A   Clear
11:55 AM 68.0 °F 39.2 °F 35% 30.11 in 10.0 mi NW 9.2 mph - N/A   Clear
12:15 PM 68.0 °F 41.0 °F 37% 30.11 in 10.0 mi NW 15.0 mph - N/A   Clear
12:35 PM 68.0 °F 41.0 °F 37% 30.10 in 10.0 mi WNW 9.2 mph - N/A   Clear
12:55 PM 69.8 °F 41.0 °F 35% 30.09 in 10.0 mi WNW 11.5 mph - N/A   Clear
1:15 PM 69.8 °F 41.0 °F 35% 30.09 in 10.0 mi NW 13.8 mph 18.4 mph N/A   Clear
1:35 PM 71.6 °F 39.2 °F 31% 30.08 in 10.0 mi WNW 11.5 mph 16.1 mph N/A   Clear
1:55 PM 71.6 °F 39.2 °F 31% 30.07 in 10.0 mi NW 12.7 mph - N/A   Clear
2:15 PM 71.6 °F 41.0 °F 33% 30.07 in 10.0 mi WNW 10.4 mph - N/A   Clear
2:35 PM 71.6 °F 41.0 °F 33% 30.07 in 10.0 mi West 10.4 mph 19.6 mph N/A   Clear
2:55 PM 73.4 °F 37.4 °F 27% 30.07 in 10.0 mi WNW 11.5 mph 18.4 mph N/A   Clear
3:15 PM 73.4 °F 39.2 °F 29% 30.07 in 10.0 mi NW 10.4 mph - N/A   Clear
3:35 PM 73.4 °F 37.4 °F 27% 30.06 in 10.0 mi WNW 11.5 mph 17.3 mph N/A   Clear
3:55 PM 75.2 °F 35.6 °F 24% 30.06 in 10.0 mi WNW 11.5 mph - N/A   Clear
4:15 PM 75.2 °F 37.4 °F 25% 30.05 in 10.0 mi NW 10.4 mph - N/A   Clear
4:35 PM 75.2 °F 39.2 °F 27% 30.05 in 10.0 mi NW 8.1 mph - N/A   Clear
4:55 PM 75.2 °F 41.0 °F 29% 30.05 in 10.0 mi NW 8.1 mph - N/A   Clear
5:15 PM 75.2 °F 37.4 °F 25% 30.05 in 10.0 mi WNW 9.2 mph - N/A   Clear
5:35 PM 75.2 °F 37.4 °F 25% 30.05 in 10.0 mi NW 6.9 mph - N/A   Clear
5:55 PM 75.2 °F 37.4 °F 25% 30.05 in 10.0 mi WNW 6.9 mph - N/A   Clear
6:15 PM 75.2 °F 37.4 °F 25% 30.05 in 10.0 mi NW 6.9 mph - N/A   Clear
6:35 PM 73.4 °F 37.4 °F 27% 30.05 in 10.0 mi West 4.6 mph - N/A   Clear
6:55 PM 71.6 °F 41.0 °F 33% 30.06 in 10.0 mi Calm Calm - N/A   Clear
7:15 PM 66.2 °F 44.6 °F 46% 30.06 in 10.0 mi NNE 6.9 mph - N/A   Clear
7:55 PM 62.6 °F 46.4 °F 55% 30.08 in 10.0 mi Calm Calm - N/A   Clear
8:15 PM 60.8 °F 46.4 °F 59% 30.08 in 10.0 mi NW 3.5 mph - N/A   Clear
8:35 PM 62.6 °F 46.4 °F 55% 30.09 in 10.0 mi Calm Calm - N/A   Clear
8:55 PM 59.0 °F 46.4 °F 63% 30.09 in 10.0 mi Calm Calm - N/A   Clear
9:15 PM 60.8 °F 46.4 °F 59% 30.09 in 10.0 mi ENE 3.5 mph - N/A   Clear
9:35 PM 62.6 °F 46.4 °F 55% 30.10 in 10.0 mi ENE 4.6 mph - N/A   Clear
9:55 PM 60.8 °F 42.8 °F 52% 30.10 in 10.0 mi NW 9.2 mph - N/A   Clear
10:15 PM 64.4 °F 42.8 °F 45% 30.11 in 10.0 mi NNW 8.1 mph - N/A   Clear
10:35 PM 64.4 °F 42.8 °F 45% 30.11 in 10.0 mi NNW 10.4 mph - N/A   Clear
10:55 PM 64.4 °F 41.0 °F 42% 30.11 in 10.0 mi North 11.5 mph - N/A   Clear
11:15 PM 60.8 °F 44.6 °F 55% 30.11 in 10.0 mi Calm Calm - N/A   Clear
11:35 PM 59.0 °F 44.6 °F 59% 30.11 in 10.0 mi NNW 6.9 mph - N/A   Clear
11:55 PM 57.2 °F 44.6 °F 63% 30.11 in 10.0 mi Calm Calm - N/A   Clear